OE3APM-13 Weather Reports


Display with metric or nautical units.
time (UTC)temp
F
wind
direction
speed
MPH
gust
MPH
rain 1hr
in
rain 24hr
in
rain mn
in
humidity
%
barometer
mb
20200606084312 64 175 1.0 4.0 0.00 0.09 0.00 70 1007.5
20200606082312 63 183 0.0 5.0 0.00 0.09 0.00 71 1007.6
20200606081311 62 225 2.0 5.0 0.00 0.09 0.00 73 1007.5
20200606075311 61 173 3.0 7.0 0.00 0.09 0.00 74 1007.4
20200606073311 61 188 3.0 8.0 0.00 0.09 0.00 74 1007.3
20200606072312 61 203 3.0 7.0 0.00 0.09 0.00 73 1007.2
20200606071311 61 257 2.0 10.0 0.00 0.09 0.00 73 1007.1
20200606065310 61 167 5.0 15.0 0.00 0.10 0.00 72 1007.1
20200606062310 60 184 3.0 10.0 0.00 0.10 0.00 74 1006.9
20200606061310 60 244 4.0 9.0 0.00 0.10 0.00 75 1006.8
20200606060310 58 240 3.0 7.0 0.00 0.10 0.00 77 1006.6
20200606055310 58 227 4.0 6.0 0.00 0.17 0.00 78 1006.5
20200606054310 58 213 1.0 5.0 0.00 0.17 0.00 79 1006.6
20200606053309 57 181 1.0 3.0 0.00 0.17 0.00 79 1006.4
20200606052310 57 206 1.0 7.0 0.00 0.17 0.00 80 1006.5
20200606051310 56 236 1.0 7.0 0.00 0.17 0.00 82 1006.4
20200606050310 55 168 3.0 6.0 0.00 0.17 0.00 86 1006.3
20200606045309 53 224 3.0 5.0 0.00 0.18 0.00 88 1006.1
20200606042314 52 237 0.0 2.0 0.00 0.18 0.00 89 1006.2
20200606040313 51 239 0.0 1.0 0.00 0.18 0.00 89 1006.1
20200606033313 52 239 1.0 3.0 0.00 0.19 0.00 85 1005.8
20200606032313 52 239 0.0 0.0 0.00 0.19 0.00 84 1005.9
20200606031313 53 239 0.0 0.0 0.00 0.19 0.00 84 1005.6
20200606030313 53 239 0.0 0.0 0.00 0.19 0.00 83 1005.7
20200606025313 53 239 0.0 3.0 0.00 0.22 0.00 82 1005.5
20200606024313 53 239 0.0 3.0 0.00 0.22 0.00 82 1005.4
20200606022312 53 223 1.0 3.0 0.00 0.22 0.00 82 1005.3
20200606021312 53 227 2.0 5.0 0.00 0.22 0.00 83 1005.3
20200606020312 53 226 1.0 4.0 0.00 0.22 0.00 82 1005.2
20200606015312 53 226 1.0 3.0 0.00 0.28 0.00 82 1005.1
20200606014312 54 241 0.0 2.0 0.00 0.28 0.00 81 1005.4
20200606013312 54 242 1.0 3.0 0.00 0.28 0.00 80 1005.4
20200606011312 54 242 4.0 7.0 0.00 0.28 0.00 79 1005.1
20200606010311 54 252 6.0 8.0 0.00 0.28 0.00 79 1005.0
20200606005311 55 237 5.0 11.0 0.00 0.29 0.00 79 1005.0
20200606004311 55 247 6.0 10.0 0.00 0.29 0.00 79 1004.9
20200606003311 54 255 6.0 9.0 0.00 0.29 0.00 79 1004.9
20200606002311 55 251 7.0 11.0 0.00 0.29 0.00 78 1004.8
20200606001311 55 244 5.0 10.0 0.00 0.29 0.00 78 1004.8
20200606000311 55 238 3.0 11.0 0.00 0.29 0.00 78 1004.7
20200605235311 54 239 7.0 13.0 0.00 0.29 0.00 78 1004.7
20200605233310 54 240 5.0 10.0 0.00 0.29 0.00 79 1004.4
20200605232310 55 240 3.0 9.0 0.00 0.29 0.00 79 1004.4
20200605230310 55 248 3.0 9.0 0.00 0.29 0.00 78 1004.2
20200605225310 55 240 8.0 12.0 0.00 0.29 0.00 78 1004.3
20200605224310 54 246 5.0 12.0 0.00 0.29 0.00 79 1004.4
20200605223311 54 221 3.0 9.0 0.00 0.29 0.00 81 1004.3
20200605222310 54 232 3.0 8.0 0.00 0.29 0.00 81 1004.2
20200605221309 54 248 2.0 7.0 0.00 0.29 0.00 81 1004.1
20200605220311 54 177 1.0 5.0 0.00 0.29 0.00 81 1004.0
20200605214311 54 201 1.0 4.0 0.00 0.30 0.30 81 1003.8
20200605212311 55 232 3.0 7.0 0.00 0.30 0.30 80 1003.6
20200605211310 55 176 3.0 7.0 0.00 0.30 0.30 80 1003.5
20200605204310 55 242 5.0 9.0 0.00 0.38 0.30 79 1003.6
20200605203310 55 237 3.0 8.0 0.00 0.38 0.30 79 1003.6
20200605202310 55 252 1.0 6.0 0.00 0.38 0.30 79 1003.5
20200605201310 56 253 3.0 6.0 0.00 0.38 0.30 78 1003.4
20200605200310 56 242 5.0 11.0 0.00 0.38 0.30 77 1003.5
20200605195310 56 235 4.0 9.0 0.00 0.38 0.30 77 1003.4
20200605194309 56 256 5.0 11.0 0.00 0.38 0.30 78 1003.1
20200605192309 56 240 4.0 8.0 0.00 0.38 0.30 77 1002.7
20200605190315 56 250 6.0 9.0 0.00 0.38 0.30 77 1002.3
20200605184314 57 240 5.0 8.0 0.00 0.38 0.30 74 1001.9
20200605183313 58 256 3.0 10.0 0.00 0.38 0.30 72 1001.8
20200605182313 58 250 1.0 11.0 0.00 0.38 0.30 72 1001.8
20200605181313 59 254 4.0 12.0 0.00 0.38 0.30 70 1001.9
20200605180313 59 317 8.0 11.0 0.00 0.38 0.30 70 1001.6
20200605175313 59 253 8.0 12.0 0.00 0.38 0.30 70 1001.5
20200605174313 60 254 4.0 11.0 0.00 0.38 0.30 68 1001.4
20200605173313 60 294 7.0 9.0 0.00 0.38 0.30 67 1001.3
20200605172313 60 251 4.0 10.0 0.00 0.38 0.30 67 1001.2
20200605171313 61 255 4.0 7.0 0.00 0.38 0.30 67 1001.2
20200605170312 61 252 3.0 9.0 0.00 0.38 0.30 66 1001.2
20200605164312 62 232 7.0 12.0 0.00 0.38 0.30 64 1000.8
20200605162312 64 246 5.0 10.0 0.00 0.38 0.30 65 1000.8
20200605161312 64 238 2.0 8.0 0.00 0.38 0.30 68 1000.7
20200605160312 64 241 5.0 7.0 0.00 0.38 0.30 69 1000.7
20200605155312 62 250 1.0 7.0 0.00 0.38 0.30 73 1000.7
20200605154311 62 245 4.0 7.0 0.00 0.38 0.30 76 1000.6
20200605153311 60 238 3.0 6.0 0.00 0.38 0.30 74 1000.4
20200605150311 61 260 2.0 9.0 0.00 0.38 0.30 72 1000.3
20200605145311 61 255 1.0 5.0 0.00 0.39 0.30 76 1000.4
20200605144311 61 255 2.0 6.0 0.00 0.39 0.30 75 1000.6
20200605143311 61 255 5.0 8.0 0.00 0.39 0.30 74 1000.5
20200605142311 62 286 3.0 6.0 0.00 0.39 0.30 75 1000.8
20200605141311 61 311 5.0 8.0 0.00 0.39 0.30 78 1000.6
20200605140310 61 253 1.0 5.0 0.00 0.39 0.30 77 1000.5
20200605135310 60 253 1.0 5.0 0.00 0.39 0.30 80 1000.5
20200605134310 60 252 2.0 7.0 0.00 0.39 0.30 82 1000.7
20200605133310 58 317 1.0 4.0 0.00 0.39 0.30 86 1000.6
20200605132310 57 317 1.0 2.0 0.00 0.39 0.30 87 1000.6
20200605125310 57 310 3.0 6.0 0.00 0.39 0.30 88 1000.7
20200605124309 56 307 4.0 8.0 0.01 0.39 0.30 90 1000.6
20200605123309 56 309 6.0 8.0 0.01 0.39 0.30 92 1000.5
20200605122309 56 348 2.0 4.0 0.01 0.39 0.30 94 1000.5
20200605121309 55 336 3.0 6.0 0.01 0.39 0.30 94 1000.2
20200605120315 54 350 3.0 7.0 0.02 0.39 0.30 95 999.9
20200605114314 54 310 4.0 7.0 0.08 0.39 0.29 95 999.8
20200605113314 53 306 4.0 9.0 0.08 0.39 0.29 95 999.8
20200605112313 53 304 4.0 6.0 0.08 0.39 0.29 95 999.5
20200605111313 52 306 3.0 6.0 0.08 0.39 0.29 94 999.5
20200605105313 56 305 7.0 16.0 0.02 0.32 0.23 85 999.6
20200605104313 58 269 4.0 6.0 0.00 0.31 0.21 86 999.1
20200605103313 58 304 5.0 9.0 0.00 0.31 0.21 87 999.0
20200605101313 58 243 6.0 12.0 0.00 0.31 0.21 85 998.9
20200605100313 58 296 5.0 11.0 0.00 0.31 0.21 87 999.0
20200605094312 56 266 5.0 9.0 0.00 0.31 0.21 89 998.9
20200605093312 56 247 3.0 11.0 0.00 0.31 0.21 90 999.0
20200605092312 56 252 5.0 11.0 0.00 0.31 0.21 89 999.2
20200605085312 57 250 7.0 13.0 0.00 0.31 0.21 89 998.7